Saguache, CO

2:12 AM MDT on August 22, 2017 (GMT -0600)
Saguache

Weather History for K04V - October, 2013

Change the Weather History Date:

Monday, October 14, 2013

  Actual Average (KALS) Record (KALS)
Temperature  
Mean Temperature 40 °F -  
Max Temperature 51 °F 62 °F 77 °F (2016)
Min Temperature 30 °F 25 °F 13 °F (1951)
Degree Days  
Heating Degree Days 24    
Moisture  
Dew Point 23 °F    
Average Humidity 54    
Maximum Humidity 100    
Minimum Humidity 26    
Precipitation  
Precipitation 0.00 in - - ()
Sea Level Pressure  
Sea Level Pressure 30.08 in    
Wind  
Wind Speed 9 mph (NW)    
Max Wind Speed 31 mph    
Max Gust Speed 41 mph    
Visibility 10 miles    
Events      
Averages and records for this station are not official NWS values.
T = Trace of Precipitation, MM = Missing Value Source: NWS Daily Summary

Daily Weather History Graph

Daily Weather History Graph

Search for Another Location

Airport or City:

Trip Planner

Search our weather history database for the weather conditions in past years. The results will help you decide how hot, cold, wet, or windy it might be!

Date:

Astronomy

Oct. 14, 2013 Rise Set
Actual Time 7:12 AM MDT 6:27 PM MDT
Civil Twilight 6:46 AM MDT 6:54 PM MDT
Nautical Twilight 6:15 AM MDT 7:24 PM MDT
Astronomical Twilight 5:45 AM MDT 7:55 PM MDT
Moon 3:55 PM MDT (10/14) 2:36 AM MDT (10/14)
Length of Visible Light 12h 08m
Length of Day
11h 15m
Waxing Gibbous, 80% of the Moon is Illuminated
Oct 14
Waxing Gibbous
Oct 18
Full
Oct 26
Last Quarter
Nov 3
New
Nov 9
First Quarter

Hourly Weather History & Observations

Time (MDT) Temp. Windchill Dew Point Humidity Pressure Visibility Wind Dir Wind Speed Gust Speed Precip Events Conditions
12:12 AM 39.2 °F 35.0 °F 37.4 °F 93% 30.09 in 10.0 mi ESE 5.8 mph - N/A   Scattered Clouds
12:32 AM 37.4 °F 34.9 °F 35.6 °F 93% 30.08 in 10.0 mi West 3.5 mph - N/A   Clear
12:52 AM 35.6 °F - 35.6 °F 100% 30.09 in 10.0 mi Calm Calm - N/A   Clear
1:12 AM 35.6 °F - 33.8 °F 93% 30.08 in 10.0 mi Calm Calm - N/A   Clear
1:32 AM 35.6 °F - 33.8 °F 93% 30.07 in 10.0 mi Calm Calm - N/A   Clear
1:52 AM 32.0 °F - 32.0 °F 100% 30.06 in 10.0 mi Calm Calm - N/A   Clear
2:12 AM 35.6 °F 32.8 °F 33.8 °F 93% 30.05 in 10.0 mi East 3.5 mph - N/A   Clear
2:32 AM 35.6 °F - 32.0 °F 87% 30.06 in 10.0 mi Calm Calm - N/A   Clear
2:52 AM 32.0 °F 25.6 °F 30.2 °F 93% 30.05 in 10.0 mi NNW 6.9 mph - N/A   Clear
3:12 AM 33.8 °F 30.8 °F 33.8 °F 100% 30.04 in 10.0 mi North 3.5 mph - N/A   Scattered Clouds
3:32 AM 33.8 °F - 32.0 °F 93% 30.04 in 10.0 mi Calm Calm - N/A   Clear
3:52 AM 37.4 °F 30.3 °F 28.4 °F 70% 30.03 in 10.0 mi West 10.4 mph 16.1 mph N/A   Clear
4:12 AM 39.2 °F 35.9 °F 24.8 °F 56% 30.02 in 10.0 mi WSW 4.6 mph - N/A   Clear
4:32 AM 35.6 °F 32.8 °F 28.4 °F 75% 30.02 in 10.0 mi East 3.5 mph - N/A   Clear
4:52 AM 37.4 °F 33.8 °F 26.6 °F 65% 30.02 in 10.0 mi WSW 4.6 mph - N/A   Clear
5:12 AM 37.4 °F 32.8 °F 24.8 °F 60% 30.01 in 10.0 mi West 5.8 mph 18.4 mph N/A   Clear
5:32 AM 35.6 °F 30.7 °F 23.0 °F 60% 30.01 in 10.0 mi WSW 5.8 mph - N/A   Scattered Clouds
5:52 AM 37.4 °F 30.8 °F 23.0 °F 56% 30.01 in 10.0 mi WSW 9.2 mph - N/A   Clear
6:12 AM 37.4 °F 30.8 °F 23.0 °F 56% 30.02 in 10.0 mi WSW 9.2 mph - N/A   Clear
6:32 AM 35.6 °F 31.7 °F 23.0 °F 60% 30.02 in 10.0 mi NW 4.6 mph - N/A   Clear
6:52 AM 37.4 °F 30.8 °F 21.2 °F 52% 30.03 in 10.0 mi WNW 9.2 mph - N/A   Clear
7:12 AM 35.6 °F 28.0 °F 23.0 °F 60% 30.04 in 10.0 mi NNW 10.4 mph 13.8 mph N/A   Clear
7:32 AM 33.8 °F 25.8 °F 23.0 °F 65% 30.05 in 10.0 mi NNW 10.4 mph - N/A   Clear
7:52 AM 35.6 °F 29.2 °F 26.6 °F 70% 30.06 in 10.0 mi NNW 8.1 mph - N/A   Clear
8:12 AM 37.4 °F 32.8 °F 26.6 °F 65% 30.06 in 10.0 mi WNW 5.8 mph - N/A   Clear
8:32 AM 39.2 °F 37.0 °F 24.8 °F 56% 30.07 in 10.0 mi WNW 3.5 mph - N/A   Clear
8:52 AM 41.0 °F 39.0 °F 24.8 °F 53% 30.07 in 10.0 mi SW 3.5 mph - N/A   Clear
9:12 AM 42.8 °F 37.0 °F 24.8 °F 49% 30.07 in 10.0 mi NW 10.4 mph - N/A   Clear
9:32 AM 42.8 °F 36.6 °F 23.0 °F 46% 30.07 in 10.0 mi NW 11.5 mph - N/A   Clear
9:52 AM 44.6 °F 38.8 °F 21.2 °F 39% 30.07 in 10.0 mi West 11.5 mph 18.4 mph N/A   Scattered Clouds
10:12 AM 46.4 °F 38.7 °F 19.4 °F 34% 30.07 in 10.0 mi NNW 20.7 mph 27.6 mph N/A   Clear
10:32 AM 46.4 °F 39.5 °F 19.4 °F 34% 30.07 in 10.0 mi NNW 17.3 mph 23.0 mph N/A   Scattered Clouds
10:51 AM 44.6 °F 36.6 °F 19.4 °F 37% 30.06 in 10.0 mi NNW 19.6 mph 24.2 mph N/A   Scattered Clouds
11:12 AM 48.2 °F - 19.4 °F 32% 30.06 in 10.0 mi NNW 16.1 mph 25.3 mph N/A   Scattered Clouds
11:31 AM 48.2 °F - 19.4 °F 32% 30.07 in 10.0 mi NNW 20.7 mph 27.6 mph N/A   Clear
11:51 AM 50.0 °F - 19.4 °F 30% 30.07 in 10.0 mi NNW 20.7 mph 26.5 mph N/A   Scattered Clouds
12:12 PM 50.0 °F - 21.2 °F 32% 30.07 in 10.0 mi NNW 15.0 mph 23.0 mph N/A   Mostly Cloudy
12:32 PM 50.0 °F - 21.2 °F 32% 30.06 in 10.0 mi NNW 20.7 mph 27.6 mph N/A   Scattered Clouds
12:52 PM 50.0 °F - 19.4 °F 30% 30.05 in 10.0 mi NW 20.7 mph 27.6 mph N/A   Scattered Clouds
1:12 PM 51.8 °F - 19.4 °F 28% 30.05 in 10.0 mi NNW 24.2 mph 32.2 mph N/A   Scattered Clouds
1:31 PM 50.0 °F - 19.4 °F 30% 30.05 in 10.0 mi NNW 21.9 mph 31.1 mph N/A   Scattered Clouds
1:52 PM 50.0 °F - 17.6 °F 28% 30.04 in 10.0 mi NNW 21.9 mph 31.1 mph N/A   Clear
2:12 PM 50.0 °F - 19.4 °F 30% 30.04 in 10.0 mi NW 26.5 mph 35.7 mph N/A   Clear
2:32 PM 50.0 °F - 19.4 °F 30% 30.04 in 10.0 mi NNW 24.2 mph 32.2 mph N/A   Clear
2:52 PM 51.8 °F - 19.4 °F 28% 30.04 in 10.0 mi NNW 21.9 mph 32.2 mph N/A   Clear
3:12 PM 51.8 °F - 19.4 °F 28% 30.04 in 10.0 mi NNW 21.9 mph 33.4 mph N/A   Clear
3:32 PM 51.8 °F - 19.4 °F 28% 30.05 in 10.0 mi NNW 23.0 mph 28.8 mph N/A   Clear
3:52 PM 50.0 °F - 19.4 °F 30% 30.05 in 10.0 mi NNW 23.0 mph 34.5 mph N/A   Clear
4:12 PM 50.0 °F - 15.8 °F 26% 30.06 in 10.0 mi NW 24.2 mph 34.5 mph N/A   Clear
4:32 PM 50.0 °F - 17.6 °F 28% 30.07 in 10.0 mi NNW 24.2 mph 35.7 mph N/A   Clear
4:51 PM 50.0 °F - 19.4 °F 30% 30.07 in 10.0 mi NNW 26.5 mph 34.5 mph N/A   Clear
5:12 PM 48.2 °F - 19.4 °F 32% 30.08 in 10.0 mi NNW 24.2 mph 31.1 mph N/A   Clear
5:32 PM 46.4 °F 37.0 °F 23.0 °F 40% 30.08 in 10.0 mi NW 31.1 mph 40.3 mph N/A   Clear
5:52 PM 42.8 °F 32.3 °F 19.4 °F 39% 30.09 in 10.0 mi NNW 29.9 mph 41.4 mph N/A   Clear
6:12 PM 42.8 °F 34.5 °F 21.2 °F 42% 30.10 in 10.0 mi NNW 18.4 mph 29.9 mph N/A   Clear
6:32 PM 41.0 °F 31.9 °F 21.2 °F 45% 30.11 in 10.0 mi NNW 19.6 mph 28.8 mph N/A   Clear
6:52 PM 41.0 °F 33.1 °F 21.2 °F 45% 30.13 in 10.0 mi NNW 15.0 mph 24.2 mph N/A   Clear
7:12 PM 39.2 °F 33.0 °F 21.2 °F 49% 30.14 in 10.0 mi NNW 9.2 mph - N/A   Clear
7:32 PM 39.2 °F 32.5 °F 21.2 °F 49% 30.16 in 10.0 mi North 10.4 mph 18.4 mph N/A   Clear
7:52 PM 39.2 °F 32.0 °F 21.2 °F 49% 30.16 in 10.0 mi NNW 11.5 mph - N/A   Clear
8:12 PM 39.2 °F 32.0 °F 21.2 °F 49% 30.17 in 10.0 mi NNW 11.5 mph - N/A   Clear
8:32 PM 39.2 °F 33.0 °F 23.0 °F 52% 30.17 in 10.0 mi NNW 9.2 mph 18.4 mph N/A   Clear
8:52 PM 35.6 °F 31.7 °F 21.2 °F 56% 30.19 in 10.0 mi WNW 4.6 mph - N/A   Clear
9:12 PM 33.8 °F 27.7 °F 21.2 °F 60% 30.19 in 10.0 mi NW 6.9 mph - N/A   Clear
9:32 PM 33.8 °F - 23.0 °F 65% 30.20 in 10.0 mi Calm Calm - N/A   Clear
9:52 PM 33.8 °F 30.8 °F 21.2 °F 60% 30.20 in 10.0 mi NNW 3.5 mph - N/A   Clear
10:12 PM 32.0 °F - 21.2 °F 64% 30.21 in 10.0 mi Calm Calm - N/A   Clear
10:32 PM 30.2 °F 23.4 °F 21.2 °F 69% 30.21 in 10.0 mi NNW 6.9 mph - N/A   Clear
10:52 PM 32.0 °F 23.0 °F 21.2 °F 64% 30.21 in 10.0 mi NNW 11.5 mph - N/A   Clear
11:12 PM 32.0 °F 23.0 °F 23.0 °F 69% 30.21 in 10.0 mi NNW 11.5 mph - N/A   Clear
11:31 PM 33.8 °F 25.3 °F 23.0 °F 65% 30.20 in 10.0 mi NNW 11.5 mph - N/A   Clear
11:52 PM 32.0 °F 23.6 °F 23.0 °F 69% 30.20 in 10.0 mi NNW 10.4 mph - N/A   Clear